www.pogodaiklimat.ru

Погода и климат >> Архив погоды >> Россия >> Архангельская область >> Кепино


ПОГОДА в Кепино

  • Прогноз погоды в Кепино
  • Монитор погоды в Кепино
  • Климат города

АРХИВ ПОГОДЫ в Кепино

Время (UTC), дата Ветер
(напр.,м/с)
 
Видим.   Явления Облачность Т
(С)
Тd
(С)
f
(%)
Тe
(С)
Тes
(С)
Комфортность P
(гПа)
Po
(гПа)
Тmin
(С)
Tmax
(С)
R
(мм)
R24
(мм)
S
(см)
18 10.11 Ю 2 10 км {ливн. осадки} 10/10 600 м
[Sc]
+0.6 -0.5 92 -3 -3 1003.2 994.5
21 10.11 Ю 2 10 км 10/10 600 м
[Sc]
+0.8 -0.4 92 -3 -3 1003.8 995.1
00 11.11 Ю 2 10 км 10/10 600 м
[Sc]
+0.8 -0.1 94 -3 -3 1004.4 995.7
03 11.11 Ю 1 4000 м дымка 10/10 600 м
[Sc]
+0.8 +0.2 96 -1 -1 1004.9 996.2 +0.4 0.0 0
06 11.11 Ю 1 2000 м дымка 10/10 300 м
[St]
+0.7 +0.3 97 -1 -1 1005.6 996.8
09 11.11 Ю 1 4000 м дымка 10/10 300 м
[St]
+1.1 +0.3 94 -1 -1 1006.2 997.5
12 11.11 Ю 1 4000 м дымка 10/10 300 м
[St]
+0.5 -0.2 95 -2 -2 1006.9 998.1
15 11.11 ЮВ 1 4000 м дымка 10/10 300 м
[St]
+0.8 +0.3 96 -1 -1 1007.1 998.3 +1.1
18 11.11 ЮВ 1 4000 м слабый ливневой снег 10/10 300 м
[Cb cap]
+0.7 +0.2 96 -1 -1 1006.5 997.8
21 11.11 ЮВ 1 4000 м слабый ливневой снег 10/10 300 м
[Cb cap]
+0.7 +0.2 96 -1 -1 1006.0 997.3
00 12.11 ЮВ 2 10 км {ливн. осадки} 10/10 600 м
[Sc]
+0.8 +0.3 96 -3 -3 1005.4 996.7
03 12.11 ЮВ 2 10 км 10/10 600 м
[Sc]
+1.0 +0.6 97 -3 -3 1005.1 996.4 +0.6 0.6 <0.5
06 12.11 ЮВ 2 10 км 10/10 600 м
[Sc]
+1.0 +0.7 98 -3 -3 1005.0 996.3
09 12.11 ЮВ 2 4000 м дымка 10/10 600 м
[Sc]
+1.3 +0.9 97 -2 -2 1005.2 996.5
12 12.11 ЮВ 2 4000 м дымка 10/10 600 м
[Sc]
+1.3 +1.0 98 -2 -2 1005.1 996.4
15 12.11 ЮВ 2 2000 м дымка 10/10 300 м
[St]
+1.2 +0.8 97 -2 -2 1004.7 996.0 +1.4
18 12.11 ЮВ 2 4000 м дымка 10/10 300 м
[St]
+1.0 +0.5 96 -3 -3 1004.5 995.8
21 12.11 ЮВ 2 4000 м дымка 10/10 300 м
[St]
+0.8 +0.3 96 -3 -3 1003.9 995.2
00 13.11 ЮВ 2 4000 м слабый ливневой снег 10/10 300 м
[Cb cap]
+0.6 -0.2 94 -3 -3 1003.2 994.5
03 13.11 В 2 4000 м слабый ливневой снег 10/10 300 м
[Cb cap]
+0.3 -0.3 96 -3 -3 1002.6 993.9 +0.3 0.8 <0.5
06 13.11 В 1 4000 м слабый ливневой снег 10/10 600 м
[Cb cap]
0.0 -0.4 97 -2 -2 1002.2 993.5 0.0
09 13.11 Ю 1 4000 м слабый ливневой снег 10/10 300 м
[Cb cap]
+0.2 -0.3 96 -2 -2 1002.6 993.9
12 13.11 Ю 1 10 км {ливн. осадки} 10/9 600 м
[Sc Ac trans]
+0.1 -0.5 96 -2 -2 1003.7 995.0
15 13.11 ЮВ 1 10 км 10/10 600 м
[Sc]
+0.2 -0.4 96 -2 -2 1004.4 995.7 +0.3 1
18 13.11 ЮВ 2 4000 м слабый ливневой снег 10/10 300 м
[Cb cap]
+0.4 -0.1 96 -3 -3 1004.1 995.4
21 13.11 Ю 2 10 км {ливн. осадки} 10/10 600 м
[Sc]
+0.6 +0.1 96 -3 -3 1004.7 996.0
00 14.11 ЮВ 2 4000 м слабый ливневой снег 10/10 300 м
[Cb cap]
+0.9 +0.5 97 -3 -3 1004.5 995.8
03 14.11 ЮВ 3 4000 м слабый ливневой снег 10/10 300 м
[Cb cap]
+1.0 +0.4 96 -4 -4 1003.5 994.8 +0.2 0.8 <0.5
06 14.11 ЮВ 2 4000 м слабый ливневой снег 10/10 300 м
[Cb cap]
+0.5 +0.1 97 -3 -3 1002.9 994.2
09 14.11 Ю 2 10 км {ливн. осадки} 10/10 600 м
[Sc]
+0.6 -0.3 94 -3 -3 1002.9 994.2
12 14.11 ЮВ 1 10 км в посл. час ливневой снег 10/10 600 м
[Sc]
+0.5 0.0 96 -2 -2 1002.6 993.9
15 14.11 Ю 1 10 км 10/10 600 м
[Sc]
+0.2 -0.3 96 -2 -2 1002.1 993.4 +1.0 1
18 14.11 Ю 1 4000 м слабый ливневой снег 10/10 300 м
[Cb cap]
0.0 -0.4 97 -2 -2 1001.5 992.8
21 14.11 штиль 0 4000 м слабый ливневой снег 10/10 300 м
[Cb cap]
-0.7 -1.0 98 -2 -2 1000.7 992.0
00 15.11 штиль 0 10 км {ливн. осадки} 8/4 600 м
[Sc Ac trans]
-3.1 -3.2 99 -4 -4 1000.3 991.5
03 15.11 штиль 0 10 км 10/8 600 м
[Sc Ac trans]
-2.7 -2.9 99 -4 -4 1000.3 991.5 -3.5 0.4 1
06 15.11 штиль 0 10 км 6/6 600 м
[Sc]
-2.8 -3.1 98 -4 -4 1000.4 991.6
09 15.11 ЮЗ 1 10 км 10/10 600 м
[Sc]
-1.5 -1.8 98 -4 -4 1000.8 992.0
12 15.11 Ю 2 4000 м слабый ливневой снег 9/6 600 м
[Cb cap Ac trans Ci sp]
-1.7 -2.3 96 -6 -6 1000.8 992.0
15 15.11 Ю 2 4000 м слабый ливневой снег 10/10 300 м
[Cb cap]
-1.4 -2.0 96 -5 -5 999.9 991.1 -1.3 0.2
18 15.11 Ю 1 4000 м слабый ливневой снег 10/10 300 м
[Cb cap]
-0.6 -0.9 98 -3 -3 999.4 990.7
21 15.11 ЮЗ 3 10 км {ливн. осадки} 10/10 600 м
[Sc]
-0.2 -1.0 94 -5 -5 1000.0 991.3
00 16.11 ЮЗ 2 10 км {ливн. осадки} 8/4 600 м
[Sc Ac trans]
-1.4 -2.5 92 -5 -5 1000.7 991.9
03 16.11 ЮЗ 3 10 км 10/10 600 м
[Sc]
-1.2 -2.5 91 -6 -6 1001.0 992.2 -1.4 0.4 2
06 16.11 ЮЗ 3 10 км 10/10 600 м
[Sc]
-1.2 -2.4 92 -6 -6 1001.1 992.4
09 16.11 ЮЗ 2 10 км {ливн. осадки} 10/10 600 м
[Sc]
-1.0 -2.1 92 -5 -5 1002.1 993.3
12 16.11 ЮЗ 1 10 км {ливн. осадки} 10/10 600 м
[Sc]
-1.5 -2.2 95 -4 -4 1003.0 994.2
15 16.11 ЮЗ 1 10 км 10/10 600 м
[Sc]
-1.9 -2.5 96 -4 -4 1003.4 994.6 -1.0 0.2
18 16.11 ЮЗ 1 10 км 9/9 600 м
[Sc]
-1.8 -2.5 95 -4 -4 1003.3 994.5
21 16.11 З 2 4000 м слабый ливневой снег 10/10 300 м
[Cb cap]
-2.0 -3.2 91 -6 -6 1003.9 995.1
00 17.11 ЮЗ 1 10 км {ливн. осадки} 9/9 600 м
[Sc]
-2.4 -3.8 90 -5 -5 1004.2 995.4
03 17.11 З 3 10 км 9/6 600 м
[Sc Ac trans]
-2.3 -4.5 85 -7 -7 1004.2 995.4 -2.8 0.0 4
09 17.11 ЮЗ 2 10 км 9/9 1000 м
[Sc]
-1.4 -3.3 87 -5 -5 1004.1 995.3
12 17.11 Ю 1 4000 м слабый ливневой снег 10/10 600 м
[Cb cap]
-1.7 -2.7 93 -4 -4 1003.6 994.8
15 17.11 ЮЗ 2 10 км {ливн. осадки} 10/6 600 м
[Sc Ac trans]
-2.2 -3.4 91 -6 -6 1003.0 994.2 -1.4 0.3

 

Местоположение метеостанции Кепино (Архангельская область, Россия): широта 65.38 долгота 41.83 высота над уровнем моря 69 м.

В архиве по умолчанию представлена погода в Кепино за последнюю неделю. Архивные данные за месяц целиком и за предыдущие месяцы, начиная с января 2011 года, Вы можете получить, выбрав интересующий диапазон дат из раскрывающегося списка и нажав кнопку "Ввод!".

Внимание! Время в таблицах - всемирное. Для получения местного времени необходимо прибавить поправку, которая в Кепино равна 3 ч.

Смотрите также архив погоды в соседних городах и на ближайших метеорологических станциях:

Погода на Мудьюге Острове (Архангельская область, Россия) (93 км)
Погода в Зимнегорском Маяке (Архангельская область, Россия) (98 км)
Погода в Пинеге (Архангельская область, Россия) (104 км)
Погода в Архангельске (Архангельская область, Россия) (111 км)
Погода в Мезене (Архангельская область, Россия) (122 км)
Погода в Абрамовском маяке (Архангельская область, Россия) (129 км)
Погода в Холмогорах (Архангельская область, Россия) (129 км)
Погода в Северодвинске (Архангельская область, Россия) (131 км)
Погода на Сосновец Острове (Мурманская область, Россия) (133 км)
Погода в Пялице (Мурманская область, Россия) (138 км)

Пояснения к столбцам:

Ветер - указаны скорость ветра в м/с - средняя за 10 мин, порывы в срок и между сроками (в фигурных скобках) и направление, откуда дует ветер: С - северный, СВ - северо-восточный, В - восточный, ЮВ - юго-восточный, Ю - южный, ЮЗ - юго-западный, З - западный, СЗ - северо-западный.
Видимость - горизонтальная дальность видимости в метрах или километрах. При видимости от 1 до 10 км при отсутствии осадков обычно наблюдается дымка, при ухудшении видимости до 1 км и менее - туман. В сухую погоду видимость может ухудшаться дымом, пылью или мглою.
Явления - указаны атмосферные явления, наблюдавшиеся в срок или в последний час перед сроком; фигурными скобками обозначены явления, наблюдавшиеся между сроками (за 1-3 часа до срока); квадратными скобками обозначены град или гололедные отложения с указанием их диаметра в мм.
Облачность - указаны через наклонную черту общая и нижняя облачность в баллах и высота нижней границы облаков в метрах; квадратными скобками обозначены формы облаков: Ci - перистые, Cs - перисто-слоистые, Cc - перисто-кучевые, Ac - высококучевые, As - высокослоистые, Sc - слоисто-кучевые, Ns - слоисто-дождевые, Cu - кучевые, Cb - кучево-дождевые. Подробнее классификацию облаков см. в Атласе облаков (PDF).
T - Температура воздуха - температура, измеренная на высоте 2 м над землей.
Td - Температура точки росы - температура, при понижении до которой содержащийся в воздухе водяной пар достигнет насыщения.
f - Относительная влажность воздуха - влажноcть воздуха, измеренная на высоте 2 м над землей.
Te - Эффективная температура - температура, которую ощущает одетый по сезону человек в тени. Характеристика душности погоды. При расчете учитывается влияние влажности воздуха и скорости ветра на теплоощущения человека.
Tes - Эффективная температура на солнце - температура, которую ощущает человек, с поправкой на солнечный нагрев. Характеристика знойности погоды. Зависит от высоты солнца над горизонтом, облачности и скорости ветра. Ночью, в пасмурную погоду, а также при ветре 12 м/с и более поправка равна нулю.
P - Атмосферное давление - приведенное к уровню моря атмосферное давление.
Po - Атмосферное давление - измеренное на уровне метеостанции атмосферное давление.
Tmin - Минимальная температура - минимум температуры воздуха на высоте 2 м над землей.
Tmax - Максимальная температура - максимум температуры воздуха на высоте 2 м над землей.
R - Количество осадков - Количество выпавших осадков за период времени, мм. При наведении курсора мыши на число - период времени, за который выпало указанное количество осадков.
R24 - Количество осадков - Количество выпавших осадков за 24 часа, мм.
S - Снежный покров - Высота снежного покрова, см. При наведении курсора мыши на число - состояние снежного покрова и степень покрытия местности в баллах.